Regional Weather Roundup
Issued by NWS

Home | Current Version | Previous Version | Graphics & Text | Print | Product List | Glossary On
Versions: 1 2 3 4 5 6 7 8 9 10 11 12 13 14 15 16 17 18 19 20 21 22 23 24 25 26 27 28 29 30 31 32 33 34 35 36 37 38 39 40 41 42 43 44 45 46 47 48 49
000
ASUS45 KCYS 152310
RWRWY

WYOMING REGIONAL WEATHER ROUNDUP
NATIONAL WEATHER SERVICE CHEYENNE WY
500 PM MDT MON SEP 15 2014

NOTE:  "FAIR" INDICATES FEW OR NO CLOUDS BELOW 12,000 FEET
WITH NO SIGNIFICANT WEATHER AND/OR OBSTRUCTIONS TO VISIBILITY.

WYZ001-160000-
YELLOWSTONE NATIONAL PARK

CITY           SKY/WX    TMP DP  RH WIND       PRES   REMARKS
LK YELLOWSTONE   N/A     66  28  24 W12G18    30.31F
W YELLOWSTONE  NOT AVBL

$$
WYZ002>013-054>058-071-098>099-160000-
NORTHERN WYOMING

CITY           SKY/WX    TMP DP  RH WIND       PRES   REMARKS
JACKSON        MOSUNNY  N/A N/A N/A W16G29    30.19S
CODY           SUNNY     70  45  40 NE10      30.12S
GREYBULL       SUNNY     79  38  22 NW6       30.05F
WORLAND        SUNNY     80  42  25 N6        30.05F
SHERIDAN       SUNNY     74  45  35 NW6       30.08F
BUFFALO        SUNNY     74  41  30 NW5       30.13F
GILLETTE       SUNNY     73  44  35 SE14      30.11F
HULETT         FAIR      70  37  30 MISG      30.16
NEWCASTLE      FAIR      68  37  32 MISG      30.17

$$
WYZ014>020-022>026-101>103-160000-
CENTRAL WYOMING

CITY           SKY/WX    TMP DP  RH WIND       PRES   REMARKS
BIG PINEY      MOSUNNY   78  27  15 NW16G24   30.25F
PINEDALE       PTCLDY    73  30  20 NW6       30.25F
DUBOIS         FAIR      72  27  18 W10G23    30.23S
LANDER         SUNNY     75  39  27 S6        30.11F
RIVERTON       SUNNY     75  40  28 VRB6      30.12F
CASPER         SUNNY     81  30  15 SW6       30.12F
DOUGLAS        SUNNY     76  42  29 SE18G25   30.15F

$$
WYZ021-027>030-104>119-160000-
SOUTHERN WYOMING

CITY           SKY/WX    TMP DP  RH WIND       PRES   REMARKS
EVANSTON       SUNNY     77  29  17 W16G25    30.27F
KEMMERER       PTCLDY   N/A N/A N/A W14G24    30.28S
FORT BRIDGER   FAIR      81  29  15 W14G24    30.29S
ROCK SPRINGS   MOSUNNY   78  31  17 SW14G20   30.23F
DIXON          FAIR      79  35  20 W9        30.26F
RAWLINS        PTSUNNY   76  29  17 SW17      30.24F
SARATOGA       FAIR      77  32  19 W14       30.28S
LARAMIE        PTSUNNY   69  39  33 S12       30.29S
CHEYENNE       SUNNY     67  39  35 S17       30.27F
TORRINGTON     SUNNY     73  47  39 SE16      30.14F
PINE BLUFFS    FAIR      68  39  34 S14G23    30.25S

$$


USA.gov is the U.S. government's official web portal to all federal, state and local government web resources and services.